Location: Ravensburg
(47.7866°N, 9.6124°E)
Time: 14:54:56
(UTC+02:00)

ITAMSAT 1 - Pass Details

Date: 21 March 2026
Orbit: 782 x 793 km, 98.7° (Epoch: 18 April)

Event Time Altitude Azimuth Distance (km) Brightness Sun altitude
Exits shadow 20:39:56 31° 67° (ENE) 1,354 8.5 -21.0°
Maximum altitude 20:40:05 31° 63° (ENE) 1,352 8.5 -21.0°
Drops below altitude 10° 20:44:37 10° 3° (N) 2,360 10.4 -21.7°
Sets 20:47:10 0° 354° (N) 3,296 11.3 -22.1°
